Regional Weather Roundup
Issued by NWS

Home | Current Version | Previous Version | Text Only | Print | Product List | Glossary Off
Versions: 1 2 3 4 5 6 7 8 9 10 11 12 13 14 15 16 17 18 19 20 21 22 23 24 25 26 27 28 29 30 31 32 33 34 35 36 37 38 39 40 41 42 43 44 45 46 47 48 49 50

000
ASUS45 KSLC 300510
RWRUT

UTAH REGIONAL WEATHER ROUNDUP
NATIONAL WEATHER SERVICE SALT LAKE CITY UT
1100 PM MDT FRI AUG 29 2014

UTZ001>011-023>025-300600-

NORTHERN UTAH

CITY           SKY/WX    TMP DP  RH WIND       PRES   REMARKS
HILL AFB       PTCLDY    73  43  34 E16       29.99S
LOGAN          CLEAR     66  53  63 CALM      29.97S
OGDEN          MOCLDY    73  43  33 S12       29.95F
PROVO AIRPORT  PTCLDY    72  46  40 S6        30.01S
SALT LAKE CITY MOCLDY    78  39  24 SE13      29.95S
VERNAL         MOCLDY    64  45  49 NE7       30.12F
WENDOVER       MOCLDY    73  39  29 W5        29.91F
HEBER CITY     PTCLDY    59  43  55 CALM      30.11F
WEST JORDAN    CLEAR     75  46  35 S10       30.00S

$$

UTZ012>022-026-027-300600-

SOUTHERN UTAH

CITY           SKY/WX    TMP DP  RH WIND       PRES   REMARKS
BRYCE CANYON   CLEAR     54  41  61 SW3       30.29R
CEDAR CITY     CLEAR     69  35  28 S3        30.11R
MILFORD        CLEAR     75  35  23 S14       30.03S
MOAB/CYNLANDS  CLEAR     71  39  31 CALM      30.04R
PRICE          MOCLDY    66  41  40 CALM      30.16S
ST GEORGE      PTCLDY    84  39  20 S3        29.91S

$$

REGIONAL REPORTS     COLORADO/ARIZONA

CITY           SKY/WX    TMP DP  RH WIND       PRES   REMARKS
CRAIG, CO      CLEAR     55  49  80 E7        30.20R
GRAND JUNCTION PTCLDY    64  51  62 CALM      30.10R
RIFLE          CLEAR     62  48  60 SE7       30.17R
MONTROSE       CLEAR     63  47  55 SE10      30.20R
CORTEZ         CLEAR     55  47  74 CALM      30.18S
PAGE, AZ       PTCLDY    79  35  20 SW3       30.02S
GRAND CANYON     N/A    N/A N/A N/A MISG        N/A
KINGMAN        PTCLDY    79  33  19 S10       29.96R
FLAGSTAFF      PTCLDY    53  43  68 CALM      30.28S

$$

REGIONAL REPORTS    NEVADA/IDAHO/WYOMING

CITY           SKY/WX    TMP DP  RH WIND       PRES   REMARKS
LAS VEGAS, NV  PTCLDY    95  29   9 SW10      29.78R
ELY            PTCLDY    61  35  37 S14       30.11S
ELKO           MOCLDY    68  35  29 SW9       30.00S
POCATELLO, ID  PTCLDY    72  41  32 SW5       29.95F
BURLEY         MOCLDY    63  51  65 S6        29.90F
EVANSTON, WY   CLEAR     58  41  53 SE7       30.20S
ROCK SPRINGS   PTCLDY    62  36  37 SW16      30.18F

$$


USA.gov is the U.S. government's official web portal to all federal, state and local government web resources and services.